Location: Ellerstadt
(49.4644°N, 8.2615°E)
Time: 10:49:45
(UTC+00:00)

Vanguard 3 - All Passes

Search period start: 13 June 2021 00:00
Search period end: 23 June 2021 00:00
Orbit: 508 x 3262 km, 33.3° (Epoch: 12 June)

Date Brightness Start Highest point End Pass type
(mag) Time Alt. Az. Time Alt. Az. Time Alt. Az.
13 Jun - 10:06:20 10° SW 10:11:10 23° SSE 10:18:16 10° ESE daylight
13 Jun - 12:16:11 10° WSW 12:22:39 25° S 12:32:18 10° SE daylight
13 Jun - 14:29:00 10° WSW 14:35:04 16° SSW 14:42:41 10° S daylight
14 Jun - 08:54:19 10° SSW 08:57:38 16° SSE 09:01:55 10° ESE daylight
14 Jun - 11:03:04 10° SW 11:08:27 24° S 11:16:26 10° SE daylight
14 Jun - 13:14:13 10° WSW 13:20:22 19° SSW 13:28:44 10° SSE daylight
15 Jun - 09:50:25 10° SW 09:54:37 20° S 10:00:30 10° SE daylight
15 Jun - 12:00:28 10° SW 12:05:57 21° S 12:13:45 10° SSE daylight
15 Jun - 14:14:48 10° SW 14:18:07 12° SSW 14:21:53 10° S daylight
16 Jun - 08:38:22 10° SSW 08:41:07 15° SSE 08:44:30 10° SE daylight
16 Jun - 10:47:18 10° SW 10:51:52 20° S 10:58:20 10° SE daylight
16 Jun - 12:59:03 10° SW 13:03:36 15° SSW 13:09:20 10° S daylight
17 Jun - 09:34:36 10° SW 09:38:07 18° S 09:42:48 10° SE daylight
17 Jun - 11:45:00 10° SW 11:49:20 16° S 11:55:03 10° SSE daylight
18 Jun - 08:22:32 10° SSW 08:24:39 13° SSE 08:27:09 10° SE daylight
18 Jun - 10:31:42 10° SW 10:35:22 17° S 10:40:11 10° SSE daylight
18 Jun - 12:45:26 10° SSW 12:46:54 10° SSW 12:48:30 10° S daylight
19 Jun - 09:18:56 10° SSW 09:21:41 15° S 09:25:06 10° SE daylight
19 Jun - 11:30:07 10° SW 11:32:47 12° SSW 11:35:55 10° S daylight
20 Jun - 08:06:52 10° S 08:08:14 11° S 08:09:43 10° SSE daylight
20 Jun - 10:16:29 10° SSW 10:18:55 13° S 10:21:48 10° SSE daylight
21 Jun - 09:03:35 10° SSW 09:05:17 12° S 09:07:13 10° SSE daylight
